Location: Apeadero de Los Molinos-Guadarrama
(40.7091°N, 4.0689°W)
Time: 09:51:02
(UTC+00:00)

Cosmos 1777 Rocket - Pass Details

Date: 14 May 2021
Orbit: 758 x 776 km, 74.0° (Epoch: 20 June)

Event Time Altitude Azimuth Distance (km) Brightness Sun altitude
Rises 20:31:33 0° 195° (SSW) 3,201 7.0 -11.4°
Reaches altitude 10° 20:33:54 10° 194° (SSW) 2,279 6.2 -11.8°
Maximum altitude 20:39:04 82° 107° (ESE) 771 3.9 -12.5°
Drops below altitude 10° 20:44:17 10° 21° (NNE) 2,295 6.7 -13.3°
Sets 20:46:39 0° 21° (NNE) 3,226 7.5 -13.6°
